星链-4363 (STARLINK-4363 )

导读 | 星芒AI

STARLINK-4363 是 SpaceX Starlink 项目中的一颗低轨通信卫星,属于第 18 批次发射的星链卫星群。该卫星运行在约 550 公里的轨道高度,旨在为全球用户提供高速互联网服务。它采用先进的相控阵天线和激光通信技术,具备高带宽和低延迟特性。作为星链网络的一部分,STARLINK-4363 贡献于 SpaceX 打造的全球宽带网络,支持偏远地区互联网接入,并增强整体系统的冗余与覆盖能力。

基本信息
目录编号:
53220
目录名称:
STARLINK-4363
国际标识:
2022-084AH
轨道中心:
EARTH
卫星名称:
星链-4363
卫星全名:
星链-4363 (STARLINK-4363 )
卫星状态:
在轨 (已飞行1202 天)
发射日期:
2022-07-22 UTC
国别 :
美国 (US)
星等 :
--
轨道信息
数据来源 国际轨道数据
星历时间: 2025-11-04T23:10:03+0800
12小时前
查看轨道信息
半长轴: 6941.146km
偏心率: 0.0003814
轨道倾角: 97.602°
近地点辐角 61.499°
升交点赤经 7.769°
平近点角 298.662°
近地点: 560.363km
远地点: 565.659km
周期: 95.919分钟
每日圈数: 15.012603
详细信息
固有亮度:
5
最大亮度:
2.5
卫星平台:
Starlink v1.5
覆盖范围:
全球
运营商:
太空探索技术公司
运营商所在国:
美国
制造商(研发单位):
太空探索技术公司
制造商所在国:
美国
使用方式:
暂无
卫星简介
星链(Starlink)计划是由太空探索技术公司(SpaceX)提出的一个巨型低轨卫星互联网星座项目,计划在2019年至2024年间在太空搭建由约1.2万颗卫星组成的“星链”网络,其中1584颗将部署在地球上空550千米处的近地轨道,并从2020年开始工作。该卫星仍在工作。
2D轨道图
3D轨道图
轨道高度分析图
轨道倾角分析图
轨道综合分析图
查看轨道综合分析图